EW5523 Weather Reports


time (UTC)temp
F
wind
direction
speed
knots
gust
knots
rain 1hr
in
rain 24hr
in
rain mn
in
humidity
%
barometer
mb
20260508174531 59 57 0.9 9.6 0.01 0.02 0.02 83 1005.0
20260508173029 61 337 0.0 7.8 0.01 0.02 0.02 80 1006.1
20260508171528 62 308 0.9 9.6 0.01 0.02 0.02 76 1006.4
20260508170027 63 303 2.6 7.8 0.00 0.01 0.01 73 1005.9
20260508164535 64 15 0.0 8.7 0.01 0.01 0.01 71 1004.7
20260508163025 65 324 0.0 5.2 0.01 0.01 0.01 71 1004.2
20260508161524 65 326 0.0 0.9 0.01 0.01 0.01 69 1003.9
20260508160034 67 341 0.0 5.2 0.01 0.01 0.01 65 1003.8
20260508154522 73 285 1.7 5.2 0.00 0.00 0.00 43 1004.3
20260508153020 74 187 0.0 3.5 0.00 0.00 0.00 42 1003.4
20260508151518 74 253 0.0 2.6 0.00 0.00 0.00 41 1003.7
20260508150020 75 222 0.0 5.2 0.00 0.00 0.00 39 1003.9
20260508144516 77 213 0.0 5.2 0.00 0.00 0.00 38 1003.8
20260508143016 77 199 0.0 5.2 0.00 0.00 0.00 37 1003.8
20260508141514 77 154 0.9 7.0 0.00 0.00 0.00 37 1004.1
20260508140012 77 218 0.9 7.0 0.00 0.00 0.00 36 1004.3
20260508134512 78 202 1.7 8.7 0.00 0.00 0.00 36 1004.6
20260508133013 78 191 0.9 5.2 0.00 0.00 0.00 36 1004.9
20260508131506 78 253 0.0 7.0 0.00 0.00 0.00 37 1005.2
20260508130004 78 216 0.9 7.0 0.00 0.00 0.00 36 1005.5
20260508124501 78 170 0.0 5.2 0.00 0.00 0.00 35 1005.7
20260508123059 77 235 0.9 7.8 0.00 0.00 0.00 35 1005.9
20260508121605 77 189 0.9 6.1 0.00 0.00 0.00 35 1006.1
20260508114554 77 130 2.6 8.7 0.00 0.00 0.00 36 1006.5
20260508113057 77 250 0.0 6.1 0.00 0.00 0.00 37 1006.9
20260508111557 76 141 0.9 8.7 0.00 0.00 0.00 36 1007.0
20260508110058 76 120 1.7 7.8 0.00 0.00 0.00 36 1007.1
20260508104545 75 158 0.0 6.1 0.00 0.00 0.00 36 1007.3
20260508103055 75 156 0.0 6.1 0.00 0.00 0.00 36 1007.6
20260508101543 75 205 1.7 7.8 0.00 0.00 0.00 36 1007.9
20260508100037 74 185 0.9 6.1 0.00 0.00 0.00 35 1008.0
20260508094539 74 154 1.7 6.1 0.00 0.00 0.00 34 1008.2
20260508093031 73 236 4.3 12.2 0.00 0.00 0.00 35 1008.5
20260508091528 73 134 1.7 7.0 0.00 0.00 0.00 34 1008.7
20260508090029 73 164 0.9 5.2 0.00 0.00 0.00 34 1009.0
20260508084524 72 164 0.0 6.1 0.00 0.00 0.00 34 1009.3
20260508083020 72 248 0.0 4.3 0.00 0.00 0.00 35 1009.4
20260508081520 71 163 1.7 6.1 0.00 0.00 0.00 35 1009.6
20260508080022 71 146 0.9 5.2 0.00 0.00 0.00 34 1009.7
20260508074514 70 125 0.0 3.5 0.00 0.00 0.00 33 1009.9
20260508073012 70 159 0.9 4.3 0.00 0.00 0.00 32 1010.1
20260508071509 69 156 1.7 7.0 0.00 0.00 0.00 33 1010.2
20260508070007 69 154 1.7 5.2 0.00 0.00 0.00 33 1010.3
20260508064505 68 205 0.9 5.2 0.00 0.00 0.00 34 1010.4
20260508063103 67 168 0.9 4.3 0.00 0.00 0.00 36 1010.6
20260508061600 65 144 0.9 3.5 0.00 0.00 0.00 37 1010.6
20260508060057 65 166 0.0 4.3 0.00 0.00 0.00 35 1010.9
20260508054602 65 142 0.0 3.5 0.00 0.00 0.00 35 1011.5
20260508053054 65 118 0.9 6.1 0.00 0.00 0.00 35 1011.2
20260508051553 64 141 0.9 3.5 0.00 0.00 0.00 37 1011.3
20260508050044 63 98 0.0 0.0 0.00 0.00 0.00 37 1011.7
20260508044541 62 122 0.0 0.9 0.00 0.00 0.00 39 1011.9
20260508043041 60 132 0.0 2.6 0.00 0.00 0.00 42 1011.7
20260508041532 59 129 0.0 1.7 0.00 0.00 0.00 43 1011.7
20260508040038 58 118 0.0 2.6 0.00 0.00 0.00 41 1012.0
20260508034529 57 103 0.0 0.0 0.00 0.00 0.00 44 1012.2
20260508033025 56 103 0.0 0.0 0.00 0.00 0.00 45 1012.4
20260508031529 55 102 0.0 0.0 0.00 0.00 0.00 47 1012.4
20260508030022 54 102 0.0 0.0 0.00 0.00 0.00 51 1012.5
20260508024532 53 102 0.0 0.0 0.00 0.00 0.00 50 1012.6
20260508023028 52 110 0.0 0.9 0.00 0.00 0.00 51 1012.7
20260508021520 52 77 0.0 0.0 0.00 0.00 0.00 52 1012.6
20260508020020 50 93 0.0 0.0 0.00 0.00 0.00 55 1012.7
20260508014540 50 96 0.0 0.0 0.00 0.00 0.00 55 1012.5
20260508013020 49 97 0.0 0.0 0.00 0.00 0.00 57 1012.6
20260508011521 46 70 0.0 0.9 0.00 0.00 0.00 65 1012.2
20260508010025 48 93 0.0 0.0 0.00 0.00 0.00 60 1012.6
20260508004521 48 56 0.0 0.0 0.00 0.00 0.00 56 1013.1
20260508003034 48 56 0.0 0.0 0.00 0.00 0.00 56 1013.3
20260508001509 50 56 0.0 0.0 0.00 0.00 0.00 55 1013.2
20260508000011 50 67 0.0 0.0 0.00 0.00 0.00 51 1013.5
20260507234507 50 67 0.0 0.0 0.00 0.00 0.00 51 1013.3
20260507233005 50 77 0.0 0.0 0.00 0.00 0.00 53 1013.0
20260507231502 51 53 0.0 0.9 0.00 0.00 0.00 50 1013.1
20260507230002 51 48 0.0 0.0 0.00 0.00 0.00 50 1013.1
20260507224502 51 87 0.0 0.0 0.00 0.00 0.00 51 1012.9
20260507223001 51 86 0.0 0.0 0.00 0.00 0.00 51 1012.7
20260507221601 51 85 0.0 0.0 0.00 0.00 0.00 52 1012.7
20260507220101 51 79 0.0 0.0 0.00 0.00 0.00 53 1012.8
20260507214603 52 78 0.0 0.0 0.00 0.00 0.00 53 1013.0
20260507213054 53 78 0.0 0.0 0.00 0.00 0.00 50 1013.0
20260507211615 53 78 0.0 0.0 0.00 0.00 0.00 50 1013.1
20260507210049 54 46 0.0 0.0 0.00 0.00 0.00 48 1013.1
20260507204547 55 50 0.0 0.9 0.00 0.00 0.00 46 1013.1
20260507203044 55 37 0.0 0.0 0.00 0.00 0.00 46 1013.1
20260507201541 56 41 0.0 0.9 0.00 0.00 0.00 46 1013.0
20260507200039 56 53 0.0 0.9 0.00 0.00 0.00 46 1012.9
20260507194540 56 46 0.0 0.0 0.00 0.00 0.00 47 1012.8
20260507193036 57 60 0.0 2.6 0.00 0.00 0.00 46 1012.7
20260507191533 58 58 0.0 5.2 0.00 0.00 0.00 45 1012.5
20260507190036 58 30 0.9 5.2 0.00 0.00 0.00 45 1012.6
20260507184531 58 36 0.0 7.0 0.00 0.00 0.00 45 1012.6
20260507183031 59 37 0.0 4.3 0.00 0.00 0.00 45 1012.6
20260507181529 59 37 0.0 5.2 0.00 0.00 0.00 44 1012.5
20260507180028 60 33 0.0 5.2 0.00 0.00 0.00 44 1012.4